Zurück zum Katalog

FENGYUN 1C DEB

AktivPO
NORAD 31416·DEBRIS·🇨🇳 China

Gestartet May 10, 1999 von Taiyuan Satellite Launch Center

Loading…

Nächste Überflüge (nächste 24 Stunden)

TLE

AktuellSource: Space-Track

Epoche: Sep 14, 2026, 10:41 UTC

1 31416U 99025BTC 26257.44520183  .00000658  00000-0  19839-3 0  9991
2 31416  99.0182 328.1690 0133389 156.5793 204.1547 14.41159297694902

Verfolge FENGYUN 1C DEB in Echtzeit mit AllMySat

Download on the App Store